Tracking 27086 objects as of 23-Mar-2023
HD Live streaming from Space Station
objects crossing your sky now

PSLV DEB

Track PSLV DEB now!
10-day predictions


NORAD ID: 35536
Int'l Code: 2001-049QL
Perigee: 681.9 km
Apogee: 1,304.6 km
Inclination: 98.6 °
Period: 104.8 minutes
Semi major axis: 7364 km
RCS: 0.0116 m2 (small)
Launch date: October 22, 2001
Source: India (IND)
Launch site: SRIHARIKOTA (SRI)

Note: This is SATELLITE DEBRIS
Your satellite tracking list
Your tracking list is empty




NASA's NSSDC Master Catalog

Two Line Element Set (TLE):
1 35536U 01049QL  23081.09047194  .00001209  00000-0  70088-3 0  9992
2 35536  98.6462 221.5672 0422784 294.5963  61.1694 13.73761230985539
Source of the keplerian elements: AFSPC